Regional Weather Roundup
Issued by NWS

Home | Current Version | Previous Version | Graphics & Text | Print | Product List | Glossary On
Versions: 1 2 3 4 5 6 7 8 9 10 11 12 13 14 15 16 17 18 19 20 21 22 23 24 25 26 27
000
ASUS45 KCYS 181110
RWRWY

WYOMING REGIONAL WEATHER ROUNDUP
NATIONAL WEATHER SERVICE CHEYENNE WY
400 AM MST SAT NOV 18 2017

NOTE:  "FAIR" INDICATES FEW OR NO CLOUDS BELOW 12,000 FEET
WITH NO SIGNIFICANT WEATHER AND/OR OBSTRUCTIONS TO VISIBILITY.

WYZ001-181200-
YELLOWSTONE NATIONAL PARK

CITY           SKY/WX    TMP DP  RH WIND       PRES   REMARKS
LK YELLOWSTONE   N/A      0  -3  87 VRB3      30.23R
W YELLOWSTONE  NOT AVBL

$$
WYZ002>013-054>058-071-098>099-181200-
NORTHERN WYOMING

CITY           SKY/WX    TMP DP  RH WIND       PRES   REMARKS
JACKSON        FAIR       6   3  87 N10       30.27R WCI  -9
CODY           FAIR      31  11  43 W20G36    30.12R WCI  19
GREYBULL       FAIR      22  17  81 E7        30.15R WCI  13
WORLAND        FAIR      22  19  89 CALM      30.15R
SHERIDAN       FAIR      30  16  56 W9        30.10R WCI  22
BUFFALO        FAIR      25   7  46 NW6       30.07R WCI  18
GILLETTE         N/A     26  16  65 W10       30.07R WCI  16
HULETT         FAIR      30  19  64 MISG      30.06R
NEWCASTLE      FAIR      28  19  69 NW12      30.07R WCI  18

$$
WYZ014>020-022>026-101>103-181200-
CENTRAL WYOMING

CITY           SKY/WX    TMP DP  RH WIND       PRES   REMARKS
BIG PINEY      FAIR       2  -2  83 CALM      30.26R
PINEDALE       FAIR      10   5  79 NW8       30.25S WCI  -1
DUBOIS         FAIR      16   5  62 NW16      30.16S WCI   0
LANDER         FAIR      23   3  42 SW6       30.14R WCI  16
RIVERTON       FAIR      23   8  52 NW15      30.14R WCI  10
CASPER         FAIR      16  11  80 SW8       30.13R WCI   5
DOUGLAS        FAIR      22  18  85 NW8       30.13R WCI  12

$$
WYZ021-027>030-104>119-181200-
SOUTHERN WYOMING

CITY           SKY/WX    TMP DP  RH WIND       PRES   REMARKS
EVANSTON       FAIR      12   9  87 SW9       30.30R WCI   0
FORT BRIDGER   FAIR      16  12  86 SW9G16    30.31S WCI   4
ROCK SPRINGS   FAIR      17  12  80 W24       30.25R WCI  -1
DIXON          FAIR       6   3  88 CALM      30.30R
RAWLINS        FAIR      17  13  84 W14       30.18R WCI   3
SARATOGA       FAIR      18  12  79 SW21      30.20R WCI   1
LARAMIE        CLOUDY    21  14  74 NW14      30.10R WCI   8
CHEYENNE       FAIR      23  16  74 NW10      30.09R WCI  12
TORRINGTON     FAIR      31  22  69 NW13      30.10R WCI  21
PINE BLUFFS    FAIR      23  19  86 NW9       30.10R WCI  13

$$




USA.gov is the U.S. government's official web portal to all federal, state and local government web resources and services.